sat.trackr.live / text

‹ back to catalog

STARLINK-37332

NORAD 69150 · 2026-111C

PAYLOAD ACTIVE UNKNOWN

§ Identity

Operator
Country
US
Launch date
2026-05-21
Launch site
AFETR
Launch vehicle
Mass (kg)
RCS (m²)

Purposes: comms

External: N2YO · Heavens-Above · Gunter

§ Orbital elements

Epoch: 2026-09-20T04:02:26.875968Z

Period
93.85 min
Inclination
53.1589°
Eccentricity
0.0000847
Mean motion
15.34397493 rev/d
Perigee alt
462.1 km
Apogee alt
463.3 km
Semi-major
6,840.8 km
B*
1.4629e-4
RAAN
67.5925°
Arg perigee
83.4737°
Mean anomaly
276.6362°
Rev number
1,884

§ Raw data

STARLINK-373321 69150U 26111C   26263.16836662  .00004569  00000+0  14629-3 0  99972 69150  53.1589  67.5925 0000847  83.4737 276.6362 15.34397493 18840

JSON: /api/v1/satellites/69150 · /tle

For live sub-satellite position, see the globe view (requires WebGL).

§ Visibility from observer

Set your observer location to see the next 7 days of passes ≥ 10°. The values pass through the URL so the page stays shareable.

No JS? Fill the form by hand. The geolocation button needs JavaScript.